Погода в Болехове

Украина / Ивано-Франковская область     49°04′03″N   23°50′57″E
В апреле 2022 года жителям России запретили посещать сайт meteo.paraplan.net по решению Генеральной прокуратуры. Аудитория сайта уменьшилась в 10 раз. Владельцы сайта не видят смысла в поддержке погодного сервера в таких условиях. Сайт будет закрыт в октябре.
темп.,
°C
ветер,
м/с
пор.,
м/с
влажн.,
%
обл.,
%
осадки,
мм/ч
давл.,
гПа
погр.,
м
30 сентября, пт
пт3000:00+9юз019890 0.1 100921
03:00+9ю119647 0.1 101018
06:00+9юз119579 0.0 101020
09:00+10юв1293100 0.0 101184
12:00+14юв2384100 0.0 1011232
15:00+14ю388598 1.1 1011478
18:00+15ююз41181100 0.0 1012881
21:00+13ююз258792 0.1 1013335
1 октября, сб
сб100:00+13зюз4118647 0.0 1014544
03:00+10ююз119328 0.0 101623
06:00+10юз1293100 0.0 101646
09:00+12ююз41388100 1.8 1016898
12:00+14зюз3989100 3.8 1015636
15:00+17зюз497459 4.8 10141022
18:00+16юз3980100 0.5 1012676
21:00+13ююз2594100 3.9 1011201
2 октября, вс
вс200:00+12зюз3393100 3.9 101075
03:00+11зсз2396100 5.4 101176
06:00+10сз2594100 1.8 1012312
09:00+10зсз398790 2.9 1013947
12:00+10з41083100 0.1 10141053
15:00+9з5108458 0.8 10151027
18:00+10зсз5118323 0.4 10151017
21:00+9зсз411829 0.5 1016908
3 октября, пн
пн300:00+8з4985100 0.3 1016922
03:00+8з388696 0.4 1016453
06:00+7з4789100 0.8 1016539
09:00+8з388794 1.8 1016707
12:00+10зсз5107984 0.9 10171181
15:00+10зсз6107998 1.5 10171189
18:00+9з4108297 0.1 1018831
21:00+8з41081100 0.1 1018734
4 октября, вт
вт400:00+9з41077100 0.1 1018605
03:00+9з51178100 0.1 1017844
06:00+8з61277100 0.1 10171043
09:00+8з51178100 0.2 10171006
12:00+9з51082100 0.6 10171020
15:00+11з697491 1.3 10171111
18:00+9зсз498332 1.1 1018826
21:00+6зюз229330 1.1 102134